Weather in Innokentyevka

Russia / Khabarovsk Krai     53°13′53″N   140°19′17″E
temp.,
°C
wind,
m/s
gust,
m/s
humid.,
%
clouds,
%
prec.,
mm/h
press.,
hPa
HPBL,
m
27 february, sat
sat2701:00−23sw119530 0.0 102820
04:00−25sw119515 0.0 102820
07:00−25s119714 0.0 102820
10:00−19se009029 0.0 1028107
13:00−13wsw11810 0.0 1027289
16:00−11wnw12820 0.0 1025348
19:00−16ene119197 0.0 102420
22:00−16e129599 0.0 102220
28 february, sun
sun2801:00−15ese1295100 0.0 101842
04:00−15e2397100 0.6 1014102
07:00−14n1197100 0.9 101223
10:00−13w2392100 1.4 1011374
13:00−11w3687100 0.1 1011772
16:00−12wnw5786100 0.3 1012721
19:00−17w398898 0.1 1014434
22:00−22w239572 0.1 101551
1 march, mon
mon101:00−24wsw229845 0.0 101538
04:00−22wsw239859 0.1 101772
07:00−19w31196100 0.3 1018531
10:00−19wnw61271100 0.3 1020749
13:00−17wnw597259 0.0 10201053
16:00−18wnw5117367 0.0 10211223
19:00−23nw238849 0.0 102232
22:00−25sw118868 0.0 102320
2 march, tue
tue201:00−26w228981 0.0 102325
04:00−27sw128687 0.0 102419
07:00−28ssw118788 0.0 102519
10:00−22wsw378967 0.0 1025523
13:00−20wsw3476100 0.0 1025702
16:00−20wsw467686 0.0 1025979
19:00−25sw128425 0.0 102520
22:00−26sse118760 0.0 102619
3 march, wed
wed301:00−28ssw228930 0.0 102419
04:00−30ssw119216 0.0 102419
07:00−32s11920 0.0 102419
10:00−25sw12820 0.0 1023170
13:00−19w13730 0.0 1020429
16:00−17wsw136517 0.0 1018530
19:00−20ene1286100 0.0 101720
22:00−20ene1198100 0.2 101620